TimeCST,TemperatureF,Dew PointF,Humidity,Sea Level PressureIn,VisibilityMPH,Wind Direction,Wind SpeedMPH,Gust SpeedMPH,PrecipitationIn,Events,Conditions,WindDirDegrees,DateUTC
12:52 AM,-2.0,-7.1,79,30.48,10.0,Calm,Calm,-,N/A,,Clear,0,2014-01-02 06:52:00
1:52 AM,-6.0,-9.0,87,30.48,10.0,NNW,3.5,-,N/A,,Clear,330,2014-01-02 07:52:00
2:52 AM,-5.1,-8.0,87,30.49,10.0,North,4.6,-,N/A,,Clear,350,2014-01-02 08:52:00
3:52 AM,-9.9,-14.1,82,30.48,10.0,WNW,5.8,-,N/A,,Clear,300,2014-01-02 09:52:00
4:52 AM,-6.0,-9.0,87,30.49,10.0,NW,5.8,-,N/A,,Clear,310,2014-01-02 10:52:00
5:08 AM,-4.0,-8.0,83,30.40,4.0,NW,6.9,-,N/A,,Scattered Clouds,320,2014-01-02 11:08:00
5:49 AM,-4.0,-7.6,85,30.39,2.5,NNW,3.5,-,N/A,,Mostly Cloudy,330,2014-01-02 11:49:00
5:52 AM,-4.0,-8.0,83,30.50,10.0,NNW,4.6,-,N/A,,Mostly Cloudy,330,2014-01-02 11:52:00
6:52 AM,-2.0,-6.0,83,30.51,10.0,NW,4.6,-,N/A,,Overcast,320,2014-01-02 12:52:00
7:52 AM,-2.9,-7.1,82,30.53,10.0,NW,5.8,-,N/A,,Overcast,320,2014-01-02 13:52:00
8:52 AM,-2.9,-7.1,82,30.54,10.0,NNW,5.8,-,N/A,,Overcast,340,2014-01-02 14:52:00
9:52 AM,-0.0,-7.1,72,30.56,10.0,NNE,6.9,-,N/A,,Overcast,20,2014-01-02 15:52:00
10:52 AM,1.9,-7.1,66,30.57,10.0,NE,3.5,-,N/A,,Partly Cloudy,40,2014-01-02 16:52:00
11:52 AM,3.9,-6.0,64,30.56,10.0,NNW,4.6,-,N/A,,Clear,340,2014-01-02 17:52:00
12:52 PM,3.9,-7.1,60,30.56,10.0,North,4.6,-,N/A,,Clear,350,2014-01-02 18:52:00
1:52 PM,6.1,-4.0,63,30.54,10.0,Calm,Calm,-,N/A,,Clear,0,2014-01-02 19:52:00
2:52 PM,6.1,-4.0,63,30.54,10.0,West,4.6,-,N/A,,Clear,280,2014-01-02 20:52:00
3:52 PM,5.0,-6.0,61,30.54,10.0,ESE,4.6,-,N/A,,Clear,120,2014-01-02 21:52:00
4:52 PM,1.9,-7.1,66,30.55,10.0,ESE,4.6,-,N/A,,Clear,110,2014-01-02 22:52:00
5:52 PM,1.0,-8.0,66,30.55,10.0,ESE,3.5,-,N/A,,Clear,110,2014-01-02 23:52:00
6:52 PM,-2.9,-9.0,75,30.54,10.0,ESE,5.8,-,N/A,,Clear,110,2014-01-03 00:52:00
7:52 PM,-5.1,-9.9,80,30.53,10.0,ESE,4.6,-,N/A,,Clear,120,2014-01-03 01:52:00
8:52 PM,-9.0,-13.0,83,30.53,10.0,ESE,4.6,-,N/A,,Clear,120,2014-01-03 02:52:00
9:52 PM,-9.0,-13.0,83,30.49,10.0,ESE,8.1,-,N/A,,Clear,110,2014-01-03 03:52:00
10:52 PM,-6.0,-9.9,83,30.47,10.0,SE,8.1,-,N/A,,Clear,140,2014-01-03 04:52:00
11:52 PM,-5.1,-9.0,83,30.44,10.0,SE,8.1,-,N/A,,Clear,130,2014-01-03 05:52:00